Location: Bakhuizen
(52.8696°N, 5.4575°E)
Time: 04:40:02
(UTC+00:00)

NOSS 2-1 (C) - Pass Details

Date: 11 May 2021
Orbit: 430 x 1771 km, 63.3° (Epoch: 26 May)

Event Time Altitude Azimuth Distance (km) Brightness Sun altitude
Rises 23:47:02 0° 312° (NW) 2,797 7.5 -18.9°
Reaches altitude 10° 23:48:59 10° 312° (NW) 2,019 6.7 -18.9°
Maximum altitude 23:53:31 85° 226° (SW) 791 3.9 -18.9°
Enters shadow 23:58:27 17° 138° (SE) 2,244 6.0 -18.8°
